User: anonymous   Login
Location: Unspecified
(0.0000°N, 0.0000°E)
Time: 15:13:05
(UTC+00:00)
Language:

OAO 2 - Orbit

View from above orbital plane
View from above orbital plane
View from above satellite
View from above satellite

Ground track
Ground track

The orbit data is extracted from the following two-line orbital elements,

1  3597U 68110A   18051.57656143 +.00000015 +00000-0 +93359-5 0  9992
2  3597 034.9939 085.5280 0005248 066.2057 293.9183 14.45797257593874
Epoch (UTC): 20 February 2018 13:50:14
Eccentricity: 0.0005248
inclination: 34.9939°
perigee height: 735 km
apogee height: 743 km
right ascension of ascending node: 85.5280°
argument of perigee: 66.2057°
revolutions per day: 14.45797257
mean anomaly at epoch: 293.9183°
orbit number at epoch: 59387

The dashed part of the orbit path shows where the satellite is in the earth's shadow,  

DLR